Regional Weather Roundup
Issued by NWS

Home | Current Version | Previous Version | Graphics & Text | Print | Product List | Glossary On
Versions: 1 2 3 4 5 6 7 8 9 10 11 12 13 14 15 16 17 18 19 20 21 22 23 24 25 26 27 28 29 30 31 32 33 34 35 36 37 38 39 40 41 42 43 44 45 46 47 48 49 50
729
ASUS43 KFSD 280010
RWRSD

WEATHER ROUNDUP FOR SOUTH DAKOTA
NATIONAL WEATHER SERVICE SIOUX FALLS SD
700 PM CDT TUE JUN 27 2017

NOTE: "FAIR" INDICATES FEW OR NO CLOUDS BELOW 12,000 FEET WITH NO
SIGNIFICANT WEATHER AND/OR OBSTRUCTIONS TO VISIBILITY.


SDZ001>005-009-010-012>017-280100-
NORTHWEST AND NORTH CENTRAL SOUTH DAKOTA

CITY           SKY/WX    TMP DP  RH WIND       PRES   REMARKS
BUFFALO          N/A     89  45  21 NW25G31   29.56R
FAITH            N/A     90  45  21 NW14      29.54S
MOBRIDGE       CLOUDY    88  58  36 S18       29.49F
$$

SDZ012>016-024>037-041>051-057-063-072>074-280100-
SOUTHWEST AND SOUTH CENTRAL SOUTH DAKOTA

CITY           SKY/WX    TMP DP  RH WIND       PRES   REMARKS
RAPID CTY ARPT TSTM      63  56  78 W21G29    29.74R
PIERRE         CLOUDY    91  59  33 S18       29.50F
CUSTER         CLOUDY    60  46  59 NW7G22    29.78F
ELLSWORTH AFB  TSTM      70  57  64 W39G62    29.69
PHILIP         MOSUNNY   92  57  30 S5        29.51F
PINE RIDGE     LGT RAIN  68  57  68 N25G37    29.66R
SPEARFISH      LGT RAIN  66  52  59 SW21G35   29.73R
WINNER         FAIR      88  63  43 S25G36    29.58F
$$

SDZ004>011-016>023-039-040-280100-
NORTHEAST SOUTH DAKOTA

CITY           SKY/WX    TMP DP  RH WIND       PRES   REMARKS
ABERDEEN       MOSUNNY   82  55  39 S21G28    29.61F
WATERTOWN      CLOUDY    76  52  43 S18G29    29.68F
BROOKINGS      MOSUNNY   77  53  43 S21G30    29.71S
SISSETON         N/A     79  46  31 S23G30    29.65F
$$

SDZ017-020-022-023-036>040-048>070-280100-
SOUTHEAST SOUTH DAKOTA

CITY           SKY/WX    TMP DP  RH WIND       PRES   REMARKS
SIOUX FALLS    CLOUDY    77  59  53 S20G30    29.72F
HURON          PTSUNNY   83  57  41 S20G28    29.62S
CHAMBERLAIN    PTSUNNY   87  66  49 SE22G31   29.58F
MITCHELL       CLOUDY    83  60  45 S25G37    29.62F
YANKTON        CLOUDY    80  63  55 SE23G35   29.69F
$$

ABBREVIATIONS USED IN REMARKS
   TC - TEMPERATURE IN CELSIUS
  WCI - WIND CHILL INDEX
   HX - HEAT INDEX
  VSB - VISIBILITY





USA.gov is the U.S. government's official web portal to all federal, state and local government web resources and services.